Time,TemperatureF,DewpointF,PressureIn,WindDirection,WindDirectionDegrees,WindSpeedMPH,WindSpeedGustMPH,Humidity,HourlyPrecipIn,Conditions,Clouds,dailyrainin,SoftwareType,DateUTC
2013-06-09 00:02:00,58.0,-99.9,-100.00,North,-999,-999.0,-999.0,-999,0.03,,,1.82,,2013-06-09 05:02:00,
2013-06-09 00:12:00,58.0,-99.9,-100.00,North,-999,-999.0,-999.0,-999,0.03,,,1.82,,2013-06-09 05:12:00,
2013-06-09 00:22:00,58.0,-99.9,-100.00,North,-999,-999.0,-999.0,-999,0.03,,,1.82,,2013-06-09 05:22:00,
2013-06-09 00:30:00,59.0,-99.9,-100.00,North,-999,-999.0,-999.0,-999,0.05,,,1.87,,2013-06-09 05:30:00,
2013-06-09 00:52:00,59.0,-99.9,-100.00,North,-999,-999.0,-999.0,-999,0.05,,,1.87,,2013-06-09 05:52:00,
2013-06-09 01:02:00,59.0,-99.9,-100.00,North,-999,-999.0,-999.0,-999,0.05,,,1.87,,2013-06-09 06:02:00,
2013-06-09 01:12:00,59.0,-99.9,-100.00,North,-999,-999.0,-999.0,-999,0.05,,,1.87,,2013-06-09 06:12:00,
2013-06-09 01:22:00,59.0,-99.9,-100.00,North,-999,-999.0,-999.0,-999,0.05,,,1.87,,2013-06-09 06:22:00,
2013-06-09 01:30:00,59.0,-99.9,-100.00,North,-999,-999.0,-999.0,-999,0.08,,,1.95,,2013-06-09 06:30:00,
2013-06-09 01:52:00,59.0,-99.9,-100.00,North,-999,-999.0,-999.0,-999,0.08,,,1.95,,2013-06-09 06:52:00,
2013-06-09 02:02:00,59.0,-99.9,-100.00,North,-999,-999.0,-999.0,-999,0.08,,,1.95,,2013-06-09 07:02:00,
2013-06-09 02:12:00,59.0,-99.9,-100.00,North,-999,-999.0,-999.0,-999,0.08,,,1.95,,2013-06-09 07:12:00,
2013-06-09 02:22:00,59.0,-99.9,-100.00,North,-999,-999.0,-999.0,-999,0.08,,,1.95,,2013-06-09 07:22:00,
2013-06-09 02:53:00,59.0,-99.9,-100.00,North,-999,-999.0,-999.0,-999,0.03,,,1.98,,2013-06-09 07:53:00,
2013-06-09 03:02:00,59.0,-99.9,-100.00,North,-999,-999.0,-999.0,-999,0.03,,,1.98,,2013-06-09 08:02:00,
2013-06-09 03:12:00,59.0,-99.9,-100.00,North,-999,-999.0,-999.0,-999,0.03,,,1.98,,2013-06-09 08:12:00,
2013-06-09 03:22:00,59.0,-99.9,-100.00,North,-999,-999.0,-999.0,-999,0.03,,,1.98,,2013-06-09 08:22:00,
2013-06-09 03:30:00,59.0,-99.9,-100.00,North,-999,-999.0,-999.0,-999,0.01,,,1.99,,2013-06-09 08:30:00,
2013-06-09 03:53:00,59.0,-99.9,-100.00,North,-999,-999.0,-999.0,-999,0.01,,,1.99,,2013-06-09 08:53:00,
2013-06-09 04:02:00,59.0,-99.9,-100.00,North,-999,-999.0,-999.0,-999,0.01,,,1.99,,2013-06-09 09:02:00,
2013-06-09 04:12:00,59.0,-99.9,-100.00,North,-999,-999.0,-999.0,-999,0.01,,,1.99,,2013-06-09 09:12:00,
2013-06-09 04:22:00,59.0,-99.9,-100.00,North,-999,-999.0,-999.0,-999,0.01,,,1.99,,2013-06-09 09:22:00,
2013-06-09 04:30:00,59.0,-99.9,-100.00,North,-999,-999.0,-999.0,-999,0.01,,,2.00,,2013-06-09 09:30:00,
2013-06-09 04:53:00,59.0,-99.9,-100.00,North,-999,-999.0,-999.0,-999,0.01,,,2.00,,2013-06-09 09:53:00,
2013-06-09 05:03:00,59.0,-99.9,-100.00,North,-999,-999.0,-999.0,-999,0.01,,,2.00,,2013-06-09 10:03:00,
2013-06-09 05:13:00,59.0,-99.9,-100.00,North,-999,-999.0,-999.0,-999,0.01,,,2.00,,2013-06-09 10:13:00,
2013-06-09 05:23:00,59.0,-99.9,-100.00,North,-999,-999.0,-999.0,-999,0.01,,,2.00,,2013-06-09 10:23:00,
2013-06-09 05:30:00,59.0,-99.9,-100.00,North,-999,-999.0,-999.0,-999,0.00,,,2.00,,2013-06-09 10:30:00,
2013-06-09 05:53:00,59.0,-99.9,-100.00,North,-999,-999.0,-999.0,-999,0.00,,,2.00,,2013-06-09 10:53:00,
2013-06-09 06:02:00,59.0,-99.9,-100.00,North,-999,-999.0,-999.0,-999,0.00,,,2.00,,2013-06-09 11:02:00,
2013-06-09 06:12:00,59.0,-99.9,-100.00,North,-999,-999.0,-999.0,-999,0.00,,,2.00,,2013-06-09 11:12:00,
2013-06-09 06:22:00,59.0,-99.9,-100.00,North,-999,-999.0,-999.0,-999,0.00,,,2.00,,2013-06-09 11:22:00,
2013-06-09 06:30:00,59.0,-99.9,-100.00,North,-999,-999.0,-999.0,-999,0.00,,,2.00,,2013-06-09 11:30:00,
2013-06-09 06:53:00,59.0,-99.9,-100.00,North,-999,-999.0,-999.0,-999,0.00,,,2.00,,2013-06-09 11:53:00,
2013-06-09 07:03:00,59.0,-99.9,-100.00,North,-999,-999.0,-999.0,-999,0.00,,,2.00,,2013-06-09 12:03:00,
2013-06-09 07:12:00,59.0,-99.9,-100.00,North,-999,-999.0,-999.0,-999,0.00,,,2.00,,2013-06-09 12:12:00,
2013-06-09 07:22:00,59.0,-99.9,-100.00,North,-999,-999.0,-999.0,-999,0.00,,,2.00,,2013-06-09 12:22:00,
2013-06-09 07:30:00,59.0,-99.9,-100.00,North,-999,-999.0,-999.0,-999,0.00,,,1.82,,2013-06-09 12:30:00,
2013-06-09 07:53:00,59.0,-99.9,-100.00,North,-999,-999.0,-999.0,-999,0.00,,,1.82,,2013-06-09 12:53:00,
2013-06-09 08:02:00,59.0,-99.9,-100.00,North,-999,-999.0,-999.0,-999,0.00,,,1.82,,2013-06-09 13:02:00,
2013-06-09 08:13:00,59.0,-99.9,-100.00,North,-999,-999.0,-999.0,-999,0.00,,,1.82,,2013-06-09 13:13:00,
2013-06-09 08:23:00,59.0,-99.9,-100.00,North,-999,-999.0,-999.0,-999,0.00,,,1.82,,2013-06-09 13:23:00,
2013-06-09 08:30:00,60.0,-99.9,-100.00,North,-999,-999.0,-999.0,-999,0.01,,,1.50,,2013-06-09 13:30:00,
2013-06-09 08:52:00,60.0,-99.9,-100.00,North,-999,-999.0,-999.0,-999,0.01,,,1.50,,2013-06-09 13:52:00,
2013-06-09 09:02:00,60.0,-99.9,-100.00,North,-999,-999.0,-999.0,-999,0.01,,,1.50,,2013-06-09 14:02:00,
2013-06-09 09:12:00,60.0,-99.9,-100.00,North,-999,-999.0,-999.0,-999,0.01,,,1.50,,2013-06-09 14:12:00,
2013-06-09 09:22:00,60.0,-99.9,-100.00,North,-999,-999.0,-999.0,-999,0.01,,,1.50,,2013-06-09 14:22:00,
2013-06-09 09:30:00,60.0,-99.9,-100.00,North,-999,-999.0,-999.0,-999,0.00,,,1.37,,2013-06-09 14:30:00,
2013-06-09 09:52:00,60.0,-99.9,-100.00,North,-999,-999.0,-999.0,-999,0.00,,,1.37,,2013-06-09 14:52:00,
2013-06-09 10:02:00,60.0,-99.9,-100.00,North,-999,-999.0,-999.0,-999,0.00,,,1.37,,2013-06-09 15:02:00,
2013-06-09 10:12:00,60.0,-99.9,-100.00,North,-999,-999.0,-999.0,-999,0.00,,,1.37,,2013-06-09 15:12:00,
2013-06-09 10:22:00,60.0,-99.9,-100.00,North,-999,-999.0,-999.0,-999,0.00,,,1.37,,2013-06-09 15:22:00,
2013-06-09 10:30:00,64.0,-99.9,-100.00,North,-999,-999.0,-999.0,-999,0.01,,,1.31,,2013-06-09 15:30:00,
2013-06-09 10:53:00,64.0,-99.9,-100.00,North,-999,-999.0,-999.0,-999,0.01,,,1.31,,2013-06-09 15:53:00,
2013-06-09 11:03:00,64.0,-99.9,-100.00,North,-999,-999.0,-999.0,-999,0.01,,,1.31,,2013-06-09 16:03:00,
2013-06-09 11:13:00,64.0,-99.9,-100.00,North,-999,-999.0,-999.0,-999,0.01,,,1.31,,2013-06-09 16:13:00,
2013-06-09 11:23:00,64.0,-99.9,-100.00,North,-999,-999.0,-999.0,-999,0.01,,,1.31,,2013-06-09 16:23:00,
2013-06-09 11:30:00,67.0,-99.9,-100.00,North,-999,-999.0,-999.0,-999,0.00,,,1.06,,2013-06-09 16:30:00,
2013-06-09 11:53:00,67.0,-99.9,-100.00,North,-999,-999.0,-999.0,-999,0.00,,,1.06,,2013-06-09 16:53:00,
2013-06-09 12:03:00,67.0,-99.9,-100.00,North,-999,-999.0,-999.0,-999,0.00,,,1.06,,2013-06-09 17:03:00,
2013-06-09 12:12:00,67.0,-99.9,-100.00,North,-999,-999.0,-999.0,-999,0.00,,,1.06,,2013-06-09 17:12:00,
2013-06-09 12:22:00,67.0,-99.9,-100.00,North,-999,-999.0,-999.0,-999,0.00,,,1.06,,2013-06-09 17:22:00,
2013-06-09 12:30:00,67.0,-99.9,-100.00,North,-999,-999.0,-999.0,-999,0.01,,,1.05,,2013-06-09 17:30:00,
2013-06-09 12:53:00,67.0,-99.9,-100.00,North,-999,-999.0,-999.0,-999,0.01,,,1.05,,2013-06-09 17:53:00,
2013-06-09 13:03:00,67.0,-99.9,-100.00,North,-999,-999.0,-999.0,-999,0.01,,,1.05,,2013-06-09 18:03:00,
2013-06-09 13:12:00,67.0,-99.9,-100.00,North,-999,-999.0,-999.0,-999,0.01,,,1.05,,2013-06-09 18:12:00,
2013-06-09 13:22:00,67.0,-99.9,-100.00,North,-999,-999.0,-999.0,-999,0.01,,,1.05,,2013-06-09 18:22:00,
2013-06-09 13:30:00,69.0,-99.9,-100.00,North,-999,-999.0,-999.0,-999,0.01,,,1.00,,2013-06-09 18:30:00,
2013-06-09 13:52:00,69.0,-99.9,-100.00,North,-999,-999.0,-999.0,-999,0.01,,,1.00,,2013-06-09 18:52:00,
2013-06-09 14:03:00,69.0,-99.9,-100.00,North,-999,-999.0,-999.0,-999,0.01,,,1.00,,2013-06-09 19:03:00,
2013-06-09 14:13:00,69.0,-99.9,-100.00,North,-999,-999.0,-999.0,-999,0.01,,,1.00,,2013-06-09 19:13:00,
2013-06-09 14:22:00,69.0,-99.9,-100.00,North,-999,-999.0,-999.0,-999,0.01,,,1.00,,2013-06-09 19:22:00,
2013-06-09 14:30:00,65.0,-99.9,-100.00,North,-999,-999.0,-999.0,-999,0.00,,,0.99,,2013-06-09 19:30:00,
2013-06-09 14:53:00,65.0,-99.9,-100.00,North,-999,-999.0,-999.0,-999,0.00,,,0.99,,2013-06-09 19:53:00,
2013-06-09 15:03:00,65.0,-99.9,-100.00,North,-999,-999.0,-999.0,-999,0.00,,,0.99,,2013-06-09 20:03:00,
2013-06-09 15:12:00,65.0,-99.9,-100.00,North,-999,-999.0,-999.0,-999,0.00,,,0.99,,2013-06-09 20:12:00,
2013-06-09 15:22:00,65.0,-99.9,-100.00,North,-999,-999.0,-999.0,-999,0.00,,,0.99,,2013-06-09 20:22:00,
2013-06-09 15:30:00,66.0,-99.9,-100.00,North,-999,-999.0,-999.0,-999,0.00,,,0.97,,2013-06-09 20:30:00,
2013-06-09 15:53:00,66.0,-99.9,-100.00,North,-999,-999.0,-999.0,-999,0.00,,,0.97,,2013-06-09 20:53:00,
2013-06-09 16:03:00,66.0,-99.9,-100.00,North,-999,-999.0,-999.0,-999,0.00,,,0.97,,2013-06-09 21:03:00,
2013-06-09 16:12:00,66.0,-99.9,-100.00,North,-999,-999.0,-999.0,-999,0.00,,,0.97,,2013-06-09 21:12:00,
2013-06-09 16:22:00,66.0,-99.9,-100.00,North,-999,-999.0,-999.0,-999,0.00,,,0.97,,2013-06-09 21:22:00,
2013-06-09 16:30:00,65.0,-99.9,-100.00,North,-999,-999.0,-999.0,-999,0.00,,,0.94,,2013-06-09 21:30:00,
2013-06-09 16:53:00,65.0,-99.9,-100.00,North,-999,-999.0,-999.0,-999,0.00,,,0.94,,2013-06-09 21:53:00,
2013-06-09 17:03:00,65.0,-99.9,-100.00,North,-999,-999.0,-999.0,-999,0.00,,,0.94,,2013-06-09 22:03:00,
2013-06-09 17:13:00,65.0,-99.9,-100.00,North,-999,-999.0,-999.0,-999,0.00,,,0.94,,2013-06-09 22:13:00,
2013-06-09 17:23:00,65.0,-99.9,-100.00,North,-999,-999.0,-999.0,-999,0.00,,,0.94,,2013-06-09 22:23:00,
2013-06-09 17:30:00,67.0,-99.9,-100.00,North,-999,-999.0,-999.0,-999,0.00,,,0.88,,2013-06-09 22:30:00,
2013-06-09 17:53:00,67.0,-99.9,-100.00,North,-999,-999.0,-999.0,-999,0.00,,,0.88,,2013-06-09 22:53:00,
2013-06-09 18:02:00,67.0,-99.9,-100.00,North,-999,-999.0,-999.0,-999,0.00,,,0.88,,2013-06-09 23:02:00,
2013-06-09 18:12:00,67.0,-99.9,-100.00,North,-999,-999.0,-999.0,-999,0.00,,,0.88,,2013-06-09 23:12:00,
2013-06-09 18:22:00,67.0,-99.9,-100.00,North,-999,-999.0,-999.0,-999,0.00,,,0.88,,2013-06-09 23:22:00,
2013-06-09 18:30:00,64.0,-99.9,-100.00,North,-999,-999.0,-999.0,-999,0.00,,,0.79,,2013-06-09 23:30:00,
2013-06-09 18:52:00,64.0,-99.9,-100.00,North,-999,-999.0,-999.0,-999,0.00,,,0.79,,2013-06-09 23:52:00,
2013-06-09 19:03:00,64.0,-99.9,-100.00,North,-999,-999.0,-999.0,-999,0.00,,,0.79,,2013-06-10 00:03:00,
2013-06-09 19:13:00,64.0,-99.9,-100.00,North,-999,-999.0,-999.0,-999,0.00,,,0.79,,2013-06-10 00:13:00,
2013-06-09 19:22:00,64.0,-99.9,-100.00,North,-999,-999.0,-999.0,-999,0.00,,,0.79,,2013-06-10 00:22:00,
2013-06-09 19:30:00,64.0,-99.9,-100.00,North,-999,-999.0,-999.0,-999,0.00,,,0.56,,2013-06-10 00:30:00,
2013-06-09 19:53:00,64.0,-99.9,-100.00,North,-999,-999.0,-999.0,-999,0.00,,,0.56,,2013-06-10 00:53:00,
2013-06-09 20:03:00,64.0,-99.9,-100.00,North,-999,-999.0,-999.0,-999,0.00,,,0.56,,2013-06-10 01:03:00,
2013-06-09 20:12:00,64.0,-99.9,-100.00,North,-999,-999.0,-999.0,-999,0.00,,,0.56,,2013-06-10 01:12:00,
2013-06-09 20:22:00,64.0,-99.9,-100.00,North,-999,-999.0,-999.0,-999,0.00,,,0.56,,2013-06-10 01:22:00,
2013-06-09 20:30:00,63.0,-99.9,-100.00,North,-999,-999.0,-999.0,-999,0.00,,,0.49,,2013-06-10 01:30:00,
2013-06-09 20:52:00,63.0,-99.9,-100.00,North,-999,-999.0,-999.0,-999,0.00,,,0.49,,2013-06-10 01:52:00,
2013-06-09 21:02:00,63.0,-99.9,-100.00,North,-999,-999.0,-999.0,-999,0.00,,,0.49,,2013-06-10 02:02:00,
2013-06-09 21:12:00,63.0,-99.9,-100.00,North,-999,-999.0,-999.0,-999,0.00,,,0.49,,2013-06-10 02:12:00,
2013-06-09 21:22:00,63.0,-99.9,-100.00,North,-999,-999.0,-999.0,-999,0.00,,,0.49,,2013-06-10 02:22:00,
2013-06-09 22:30:00,60.0,-99.9,-100.00,North,-999,-999.0,-999.0,-999,0.00,,,0.25,,2013-06-10 03:30:00,
2013-06-09 22:53:00,60.0,-99.9,-100.00,North,-999,-999.0,-999.0,-999,0.00,,,0.25,,2013-06-10 03:53:00,
2013-06-09 23:03:00,60.0,-99.9,-100.00,North,-999,-999.0,-999.0,-999,0.00,,,0.25,,2013-06-10 04:03:00,
2013-06-09 23:13:00,60.0,-99.9,-100.00,North,-999,-999.0,-999.0,-999,0.00,,,0.25,,2013-06-10 04:13:00,
2013-06-09 23:23:00,60.0,-99.9,-100.00,North,-999,-999.0,-999.0,-999,0.00,,,0.25,,2013-06-10 04:23:00,